Back to catalog

STARLINK-33976

AliveCommunicationsVLEO
NORAD 63858·PAYLOAD·🇺🇸 United States

Launched May 7, 2025 from Cape Canaveral Space Force Station

Loading…

Next Passes (next 24 hours)

TLE

FreshSource: CelesTrak SupGP

Epoch: Sep 15, 2026, 02:23 UTC

1 63858C 25093Y   26258.09979167  .00009570  00000+0  34660-3 0  2580
2 63858  43.0033  88.1717 0001688 273.0548 318.7333 15.27574221    14

Track STARLINK-33976 in real time with AllMySat

Download on the App Store